STARLINK-1037 (44742 NORAD) Tracking and Keplerian Element Data

This shows tracking and keplerian element data for the satellite.

Feedback or suggestion? Click here.




ElementValue
Catalog44742
NameSTARLINK-1037
Epoch Orbit1141
Epoch Day23.25001157
Epoch Year2020
RAAN172.2601
Inclination53.006
Eccentricity0.0001409
Argument of Perigee77.0868
Mean Anonmoly225.0543
Mean Motion15.33083095
Decay Rate-0.00041482
L11 44742U 19074AF 20023.25001157 -.00041482 00000-0 -12754-2 0 9992
L22 44742 53.0060 172.2601 0001409 77.0868 225.0543 15.33083095 11411

Live tracking and technical data element details for STARLINK-1037 (NORAD 44742). STARLINK-1037 can be tracked NOW for your location showing map with azimuth and elevation plus other details from your city location.

Track the satellite on the map from your city or location and see movement details for azimuth, elevation, latitude, longitude, range, height, and movement on the map or in text.







IsCatalogInMostPopularTable: catalog: 44742, numindb: 15
Update: records affected: 1



GetName: 44742 STARLINK-1037

Hit Count: updated at: Fri, 24 Jan 2020 14:38:39 GMT